Weather History for Evanston, WY

Change the Weather History Date:

Friday, April 12, 2013

  Actual Average Record
Temperature  
Mean Temperature 39 °F 38 °F  
Max Temperature 50 °F 48 °F 64 °F (2003)
Min Temperature 28 °F 28 °F 8 °F (1997)
Degree Days  
Heating Degree Days 26 27  
Month to date heating degree days 337 339  
Since 1 July heating degree days 6928 7407  
Cooling Degree Days 0 0  
Month to date cooling degree days 0 0  
Year to date cooling degree days 0 0  
Moisture  
Dew Point 21 °F    
Average Humidity 56    
Maximum Humidity 85    
Minimum Humidity 27    
Precipitation  
Precipitation 0.00 in 0.04 in 0.06 in (2012)
Month to date precipitation 0.53 0.42  
Year to date precipitation 1.41 2.43  
Sea Level Pressure  
Sea Level Pressure 29.89 in    
Wind  
Wind Speed 11 mph (WSW)    
Max Wind Speed 17 mph    
Max Gust Speed 22 mph    
Visibility 10 miles    
Events      
T = Trace of Precipitation, MM = Missing Value Source: NWS Daily Summary

Daily Weather History Graph

Daily Weather History Graph

Search for Another Location

Airport:

Trip Planner

Search our weather history database for the weather conditions in past years. The results will help you decide how hot, cold, wet, or windy it might be!

Date:

Astronomy

Apr. 12, 2013 Rise Set
Actual Time 6:48 AM MDT 8:01 PM MDT
Civil Twilight 6:20 AM MDT 8:29 PM MDT
Nautical Twilight 5:46 AM MDT 9:04 PM MDT
Astronomical Twilight 5:10 AM MDT 9:39 PM MDT
Moon 7:59 AM MDT (4/12) 10:37 PM MDT (4/12)
Length of Visible Light 14h 09m
Length of Day
13h 12m
Waxing Crescent, 5% of the Moon is Illuminated
Apr 12
Waxing Crescent
Apr 18
First Quarter
Apr 25
Full
May 2
Last Quarter
May 9
New

Hourly Weather History & Observations

Time (MDT) Temp. Windchill Dew Point Humidity Pressure Visibility Wind Dir Wind Speed Gust Speed Precip Events Conditions
12:53 AM 33.1 °F 26.1 °F 27.0 °F 78% 29.91 in 10.0 mi SW 8.1 mph - N/A   Mostly Cloudy
1:53 AM 33.1 °F 26.9 °F 27.0 °F 78% 29.89 in 10.0 mi SW 6.9 mph - N/A   Scattered Clouds
2:53 AM 33.1 °F 26.1 °F 27.0 °F 78% 29.87 in 10.0 mi WSW 8.1 mph - N/A   Clear
3:53 AM 30.0 °F 21.7 °F 25.0 °F 82% 29.88 in 10.0 mi WSW 9.2 mph - N/A   Clear
4:53 AM 30.0 °F 23.2 °F 24.1 °F 79% 29.88 in 10.0 mi WSW 6.9 mph - N/A   Clear
5:53 AM 30.9 °F 21.7 °F 24.1 °F 76% 29.88 in 10.0 mi West 11.5 mph - N/A   Clear
6:53 AM 28.9 °F 18.6 °F 24.1 °F 82% 29.90 in 10.0 mi WSW 12.7 mph - N/A   Clear
7:53 AM 30.9 °F 23.5 °F 23.0 °F 72% 29.94 in 10.0 mi SW 8.1 mph - N/A   Clear
8:53 AM 36.0 °F 28.0 °F 21.0 °F 55% 29.93 in 10.0 mi SW 11.5 mph - N/A   Clear
9:53 AM 39.9 °F 32.9 °F 15.1 °F 36% 29.94 in 10.0 mi West 11.5 mph - N/A   Clear
10:53 AM 42.1 °F 34.2 °F 19.9 °F 41% 29.96 in 10.0 mi West 16.1 mph 20.7 mph N/A   Clear
11:53 AM 44.1 °F 36.8 °F 19.0 °F 37% 29.96 in 10.0 mi West 16.1 mph 21.9 mph N/A   Clear
12:53 PM 45.0 °F 39.3 °F 19.0 °F 36% 29.95 in 10.0 mi West 11.5 mph 19.6 mph N/A   Clear
1:53 PM 46.9 °F - 18.0 °F 32% 29.93 in 10.0 mi WNW 11.5 mph 17.3 mph N/A   Clear
2:53 PM 48.9 °F - 19.9 °F 32% 29.90 in 10.0 mi WSW 13.8 mph 19.6 mph N/A   Clear
3:53 PM 48.9 °F - 19.9 °F 32% 29.88 in 10.0 mi WSW 15.0 mph 21.9 mph N/A   Clear
4:53 PM 50.0 °F - 19.0 °F 29% 29.87 in 10.0 mi WSW 17.3 mph 25.3 mph N/A   Clear
5:53 PM 50.0 °F - 16.0 °F 26% 29.84 in 10.0 mi WSW 13.8 mph 26.5 mph N/A   Clear
6:53 PM 46.9 °F - 17.1 °F 30% 29.86 in 10.0 mi WSW 16.1 mph 23.0 mph N/A   Clear
7:53 PM 41.0 °F 34.7 °F 15.1 °F 35% 29.87 in 10.0 mi WSW 10.4 mph - N/A   Clear
8:53 PM 37.0 °F 30.4 °F 17.1 °F 44% 29.87 in 10.0 mi WSW 9.2 mph - N/A   Clear
9:53 PM 37.0 °F 30.4 °F 17.1 °F 44% 29.87 in 10.0 mi WSW 9.2 mph - N/A   Clear
10:53 PM 36.0 °F 29.0 °F 21.0 °F 55% 29.85 in 10.0 mi South 9.2 mph - N/A   Clear
11:53 PM 36.0 °F 28.5 °F 23.0 °F 59% 29.81 in 10.0 mi SSW 10.4 mph - N/A   Clear